,,PA_Meas_PMT16A,,PR_Meas_QMR101_102,,RH_Meas_QMH101,,SR_Meas_QMS101,,TA_Meas_QMH101,,GenWind,,GenWind,
time,status,PA,status,PR,status,RH,status,SR,status,TA,status,DirAvg,status,SpdAvg,
2011-09-30, 00:00:04,VALID,918.455,VALID,0,VALID,96.5734,VALID,0,VALID,18.7669,VALID,16,VALID,0.262109,
2011-09-30, 00:01:04,VALID,918.437,VALID,0,VALID,96.6344,VALID,0,VALID,18.7279,VALID,16,VALID,0.224609,
2011-09-30, 00:02:04,VALID,918.46,VALID,0,VALID,96.8555,VALID,0,VALID,18.8059,VALID,16,VALID,0.364453,
2011-09-30, 00:03:04,VALID,918.464,VALID,0,VALID,96.6649,VALID,0,VALID,18.7474,VALID,16,VALID,0,
2011-09-30, 00:04:04,VALID,918.448,VALID,0,VALID,96.9698,VALID,0,VALID,18.8644,VALID,16,VALID,0,
2011-09-30, 00:05:04,VALID,918.441,VALID,0,VALID,97.0537,VALID,0,VALID,18.9424,VALID,16,VALID,0,
2011-09-30, 00:06:04,VALID,918.423,VALID,0,VALID,97.0994,VALID,0,VALID,19.0398,VALID,16,VALID,0.216406,
2011-09-30, 00:07:04,VALID,918.428,VALID,0,VALID,97.0766,VALID,0,VALID,19.0983,VALID,16,VALID,0.2125,
2011-09-30, 00:08:04,VALID,918.422,VALID,0,VALID,97.0918,VALID,0,VALID,19.1568,VALID,16,VALID,0.303125,
2011-09-30, 00:09:04,VALID,918.369,VALID,0,VALID,97.0842,VALID,0,VALID,19.2153,VALID,16,VALID,0.101953,
2011-09-30, 00:10:04,VALID,918.389,VALID,0,VALID,97.0994,VALID,0,VALID,19.2558,VALID,16,VALID,0.310937,
2011-09-30, 00:11:04,VALID,918.344,VALID,0,VALID,97.0918,VALID,0,VALID,19.2738,VALID,16,VALID,0.202734,
2011-09-30, 00:12:04,VALID,918.351,VALID,0,VALID,97.0994,VALID,0,VALID,19.2933,VALID,16,VALID,0,
2011-09-30, 00:13:04,VALID,918.307,VALID,0,VALID,97.1071,VALID,0,VALID,19.3128,VALID,16,VALID,0,
2011-09-30, 00:14:04,VALID,918.274,VALID,0,VALID,97.0994,VALID,0,VALID,19.2948,VALID,16,VALID,0.149219,
2011-09-30, 00:15:04,VALID,918.281,VALID,0,VALID,97.0842,VALID,0,VALID,19.2543,VALID,16,VALID,0.362891,
2011-09-30, 00:16:04,VALID,918.282,VALID,0,VALID,97.0537,VALID,0,VALID,19.1763,VALID,16,VALID,0.308203,
2011-09-30, 00:17:04,VALID,918.244,VALID,0,VALID,97.008,VALID,0,VALID,19.1373,VALID,16,VALID,0.405859,
2011-09-30, 00:18:04,VALID,918.204,VALID,0,VALID,97.0232,VALID,0,VALID,19.1373,VALID,16,VALID,0.488281,
2011-09-30, 00:19:04,VALID,918.147,VALID,0,VALID,97.069,VALID,0,VALID,19.1178,VALID,16,VALID,0.489062,
2011-09-30, 00:20:04,VALID,918.122,VALID,0,VALID,97.0537,VALID,0,VALID,19.0983,VALID,16,VALID,0.508594,
2011-09-30, 00:21:04,VALID,918.107,VALID,0,VALID,97.0461,VALID,0,VALID,19.0983,VALID,16,VALID,0.616406,
2011-09-30, 00:22:04,VALID,918.058,VALID,0,VALID,97.0842,VALID,0,VALID,19.0788,VALID,16,VALID,0.469531,
2011-09-30, 00:23:04,VALID,918.028,VALID,0,VALID,97.0994,VALID,0,VALID,19.1178,VALID,16,VALID,0.330859,
2011-09-30, 00:24:04,VALID,917.989,VALID,0,VALID,97.1071,VALID,0,VALID,19.1178,VALID,16,VALID,0.425,
2011-09-30, 00:25:04,VALID,917.964,VALID,0,VALID,97.1299,VALID,0,VALID,19.1178,VALID,16,VALID,0.390234,
2011-09-30, 00:26:04,VALID,917.94,VALID,0,VALID,97.1223,VALID,0,VALID,19.0983,VALID,16,VALID,0.454297,
2011-09-30, 00:27:04,VALID,917.922,VALID,0,VALID,97.1147,VALID,0,VALID,19.0398,VALID,16,VALID,0.562109,
2011-09-30, 00:28:04,VALID,917.879,VALID,0,VALID,97.0842,VALID,0,VALID,19.0398,VALID,16,VALID,0.429688,
2011-09-30, 00:29:04,VALID,917.876,VALID,0,VALID,97.0994,VALID,0,VALID,19.0203,VALID,16,VALID,0.206641,
2011-09-30, 00:30:04,VALID,917.864,VALID,0,VALID,97.1071,VALID,0,VALID,19.0398,VALID,16,VALID,0,
2011-09-30, 00:31:04,VALID,917.866,VALID,0,VALID,97.1071,VALID,0,VALID,19.0398,VALID,16,VALID,0,
2011-09-30, 00:32:04,VALID,917.88,VALID,0,VALID,97.1147,VALID,0,VALID,19.0398,VALID,16,VALID,0.0496094,
2011-09-30, 00:33:04,VALID,917.881,VALID,0,VALID,97.1376,VALID,0,VALID,19.0203,VALID,16,VALID,0.516797,
2011-09-30, 00:34:04,VALID,917.904,VALID,0,VALID,97.1223,VALID,0,VALID,19.0203,VALID,16,VALID,0.394141,
2011-09-30, 00:35:04,VALID,917.904,VALID,0,VALID,97.1299,VALID,0,VALID,19.0008,VALID,16,VALID,0.271484,
2011-09-30, 00:36:04,VALID,917.897,VALID,0,VALID,97.1147,VALID,0,VALID,19.0008,VALID,16,VALID,0.0710938,
2011-09-30, 00:37:04,VALID,917.885,VALID,0,VALID,97.1147,VALID,0,VALID,19.0008,VALID,16,VALID,0,
2011-09-30, 00:38:04,VALID,917.866,VALID,0,VALID,97.069,VALID,0,VALID,19.0008,VALID,16,VALID,0,
2011-09-30, 00:39:04,VALID,917.89,VALID,0,VALID,97.1147,VALID,0,VALID,19.0008,VALID,16,VALID,0,
2011-09-30, 00:40:04,VALID,917.844,VALID,0,VALID,97.1376,VALID,0,VALID,19.0203,VALID,16,VALID,0,
2011-09-30, 00:41:04,VALID,917.829,VALID,0,VALID,97.069,VALID,0,VALID,19.0008,VALID,16,VALID,0,
2011-09-30, 00:42:04,VALID,917.836,VALID,0,VALID,96.947,VALID,0,VALID,18.9619,VALID,16,VALID,0,
2011-09-30, 00:43:04,VALID,917.808,VALID,0,VALID,96.947,VALID,0,VALID,18.9229,VALID,16,VALID,0,
2011-09-30, 00:44:04,VALID,917.802,VALID,0,VALID,96.9851,VALID,0,VALID,18.9229,VALID,16,VALID,0,
2011-09-30, 00:45:04,VALID,917.76,VALID,0,VALID,97.0156,VALID,0,VALID,18.9424,VALID,16,VALID,0,
2011-09-30, 00:46:04,VALID,917.749,VALID,0,VALID,97.0156,VALID,0,VALID,18.9619,VALID,16,VALID,0,
2011-09-30, 00:47:04,VALID,917.669,VALID,0,VALID,96.9851,VALID,0,VALID,18.9424,VALID,16,VALID,0,
2011-09-30, 00:48:04,VALID,917.632,VALID,0,VALID,97.0156,VALID,0,VALID,18.9814,VALID,16,VALID,0,
2011-09-30, 00:49:04,VALID,917.653,VALID,0,VALID,97.0308,VALID,0,VALID,19.0008,VALID,16,VALID,0,
2011-09-30, 00:50:04,VALID,917.637,VALID,0,VALID,96.9927,VALID,0,VALID,19.0203,VALID,16,VALID,0,
2011-09-30, 00:51:04,VALID,917.624,VALID,0,VALID,96.9165,VALID,0,VALID,19.0203,VALID,16,VALID,0,
2011-09-30, 00:52:04,VALID,917.623,VALID,0,VALID,96.8631,VALID,0,VALID,19.0008,VALID,16,VALID,0,
2011-09-30, 00:53:04,VALID,917.613,VALID,0,VALID,96.8098,VALID,0,VALID,19.0008,VALID,16,VALID,0,
2011-09-30, 00:54:04,VALID,917.61,VALID,0,VALID,96.6497,VALID,0,VALID,18.9814,VALID,16,VALID,0,
2011-09-30, 00:55:04,VALID,917.631,VALID,0,VALID,96.4972,VALID,0,VALID,18.9438,VALID,16,VALID,0,
2011-09-30, 00:56:04,VALID,917.643,VALID,0,VALID,96.4362,VALID,0,VALID,18.9034,VALID,16,VALID,0,
2011-09-30, 00:57:04,VALID,917.634,VALID,0,VALID,96.0855,VALID,0,VALID,18.8059,VALID,16,VALID,0,
2011-09-30, 00:58:04,VALID,917.641,VALID,0,VALID,95.9483,VALID,0,VALID,18.7084,VALID,16,VALID,0.394141,
2011-09-30, 00:59:04,VALID,917.668,VALID,0,VALID,96.0169,VALID,0,VALID,18.7084,VALID,16,VALID,0.615625,
2011-09-30, 01:00:04,VALID,917.696,VALID,0,VALID,96.0703,VALID,0,VALID,18.6499,VALID,16,VALID,0.446094,
2011-09-30, 01:01:04,VALID,917.709,VALID,0,VALID,96.299,VALID,0,VALID,18.6889,VALID,16,VALID,0.452344,
2011-09-30, 01:02:04,VALID,917.727,VALID,0,VALID,96.4438,VALID,0,VALID,18.7279,VALID,16,VALID,0.45,
2011-09-30, 01:03:04,VALID,917.704,VALID,0,VALID,96.5658,VALID,0,VALID,18.7669,VALID,16,VALID,0.162891,
2011-09-30, 01:04:04,VALID,917.705,VALID,0,VALID,96.5734,VALID,0,VALID,18.8059,VALID,16,VALID,0,
2011-09-30, 01:05:04,VALID,917.695,VALID,0,VALID,96.5429,VALID,0,VALID,18.8254,VALID,16,VALID,0.00820312,
2011-09-30, 01:06:04,VALID,917.692,VALID,0,VALID,96.2304,VALID,0,VALID,18.7474,VALID,16,VALID,0.308203,
2011-09-30, 01:07:04,VALID,917.684,VALID,0,VALID,96.2837,VALID,0,VALID,18.7084,VALID,16,VALID,0.00195313,
2011-09-30, 01:08:04,VALID,917.651,VALID,0,VALID,96.3447,VALID,0,VALID,18.7488,VALID,16,VALID,0,
2011-09-30, 01:09:04,VALID,917.625,VALID,0,VALID,96.4819,VALID,0,VALID,18.7864,VALID,16,VALID,0,
2011-09-30, 01:10:04,VALID,917.604,VALID,0,VALID,96.4972,VALID,0,VALID,18.8059,VALID,16,VALID,0,
2011-09-30, 01:11:04,VALID,917.552,VALID,0,VALID,96.4743,VALID,0,VALID,18.7864,VALID,16,VALID,0,
2011-09-30, 01:12:04,VALID,917.536,VALID,0,VALID,96.4515,VALID,0,VALID,18.7864,VALID,16,VALID,0.527734,
2011-09-30, 01:13:04,VALID,917.488,VALID,0,VALID,96.4362,VALID,0,VALID,18.7669,VALID,16,VALID,0.591016,
2011-09-30, 01:14:04,VALID,917.483,VALID,0,VALID,96.5201,VALID,0,VALID,18.8059,VALID,16,VALID,0.526953,
2011-09-30, 01:15:04,VALID,917.475,VALID,0,VALID,96.5582,VALID,0,VALID,18.8254,VALID,16,VALID,0.360938,
2011-09-30, 01:16:04,VALID,917.457,VALID,0,VALID,96.6039,VALID,0,VALID,18.8254,VALID,16,VALID,0.204297,
2011-09-30, 01:17:04,VALID,917.414,VALID,0,VALID,96.6573,VALID,0,VALID,18.8449,VALID,16,VALID,0.103125,
2011-09-30, 01:18:04,VALID,917.378,VALID,0,VALID,96.7411,VALID,0,VALID,18.8644,VALID,16,VALID,0.156641,
2011-09-30, 01:19:04,VALID,917.342,VALID,0,VALID,96.7716,VALID,0,VALID,18.9048,VALID,16,VALID,0,
2011-09-30, 01:20:04,VALID,917.352,VALID,0,VALID,96.764,VALID,0,VALID,18.8644,VALID,16,VALID,0,
2011-09-30, 01:21:04,VALID,917.362,VALID,0,VALID,96.7259,VALID,0,VALID,18.8463,VALID,16,VALID,0.846875,
2011-09-30, 01:22:04,VALID,917.363,VALID,0,VALID,96.6878,VALID,0,VALID,18.7669,VALID,167,VALID,1.09063,
2011-09-30, 01:23:04,VALID,917.328,VALID,0,VALID,96.7335,VALID,0,VALID,18.7488,VALID,167,VALID,1.21953,
2011-09-30, 01:24:04,VALID,917.304,VALID,0,VALID,96.8021,VALID,0,VALID,18.7279,VALID,167,VALID,0.860937,
2011-09-30, 01:25:04,VALID,917.312,VALID,0,VALID,96.8021,VALID,0,VALID,18.6694,VALID,167,VALID,0.687891,
2011-09-30, 01:26:04,VALID,917.324,VALID,0,VALID,96.7945,VALID,0,VALID,18.6304,VALID,167,VALID,0.808203,
2011-09-30, 01:27:04,VALID,917.36,VALID,0,VALID,96.764,VALID,0,VALID,18.5914,VALID,167,VALID,0.496484,
2011-09-30, 01:28:04,VALID,917.412,VALID,0,VALID,96.8326,VALID,0,VALID,18.5929,VALID,167,VALID,0.187109,
2011-09-30, 01:29:04,VALID,917.422,VALID,0,VALID,96.8707,VALID,0,VALID,18.5734,VALID,167,VALID,0.235938,
2011-09-30, 01:30:04,VALID,917.448,VALID,0,VALID,96.9241,VALID,0,VALID,18.5525,VALID,167,VALID,0.372266,
2011-09-30, 01:31:04,VALID,917.45,VALID,0,VALID,96.9622,VALID,0,VALID,18.5525,VALID,167,VALID,0.399219,
2011-09-30, 01:32:04,VALID,917.458,VALID,0,VALID,96.9851,VALID,0,VALID,18.5539,VALID,167,VALID,0.246484,
2011-09-30, 01:33:04,VALID,917.468,VALID,0,VALID,97.0003,VALID,0,VALID,18.533,VALID,167,VALID,0.00703125,
2011-09-30, 01:34:04,VALID,917.47,VALID,0,VALID,97.0003,VALID,0,VALID,18.533,VALID,167,VALID,0,
2011-09-30, 01:35:04,VALID,917.453,VALID,0,VALID,97.0766,VALID,0.107441,VALID,18.5525,VALID,167,VALID,0,
2011-09-30, 01:36:04,VALID,917.466,VALID,0,VALID,97.0766,VALID,0,VALID,18.572,VALID,167,VALID,0.300391,
2011-09-30, 01:37:04,VALID,917.463,VALID,0,VALID,97.0918,VALID,0,VALID,18.572,VALID,167,VALID,0.191406,
2011-09-30, 01:38:04,VALID,917.42,VALID,0,VALID,97.1604,VALID,0,VALID,18.6109,VALID,167,VALID,0,
2011-09-30, 01:39:04,VALID,917.424,VALID,0,VALID,97.1528,VALID,0,VALID,18.6513,VALID,167,VALID,0.171094,
2011-09-30, 01:40:04,VALID,917.45,VALID,0,VALID,97.1528,VALID,0,VALID,18.7098,VALID,167,VALID,0.346484,
2011-09-30, 01:41:04,VALID,917.432,VALID,0,VALID,97.1909,VALID,0,VALID,18.7084,VALID,167,VALID,0.496484,
2011-09-30, 01:42:04,VALID,917.419,VALID,0,VALID,97.1986,VALID,0,VALID,18.7683,VALID,167,VALID,0.466797,
2011-09-30, 01:43:04,VALID,917.413,VALID,0,VALID,97.1986,VALID,0,VALID,18.7474,VALID,167,VALID,0.332422,
2011-09-30, 01:44:04,VALID,917.378,VALID,0,VALID,97.2138,VALID,0,VALID,18.7669,VALID,167,VALID,0.314063,
2011-09-30, 01:45:04,VALID,917.371,VALID,0,VALID,97.1986,VALID,0,VALID,18.8268,VALID,167,VALID,0.0449219,
2011-09-30, 01:46:04,VALID,917.332,VALID,0,VALID,97.2214,VALID,0,VALID,18.8644,VALID,167,VALID,0,
2011-09-30, 01:47:04,VALID,917.322,VALID,0,VALID,97.2062,VALID,0,VALID,18.8839,VALID,167,VALID,0,
2011-09-30, 01:48:04,VALID,917.284,VALID,0,VALID,97.2214,VALID,0,VALID,18.9034,VALID,167,VALID,0,
2011-09-30, 01:49:04,VALID,917.24,VALID,0,VALID,97.2214,VALID,0,VALID,18.8839,VALID,167,VALID,0.295312,
2011-09-30, 01:50:04,VALID,917.211,VALID,0,VALID,97.0537,VALID,0,VALID,18.7669,VALID,167,VALID,0.80625,
2011-09-30, 01:51:04,VALID,917.219,VALID,0,VALID,96.5963,VALID,0,VALID,18.572,VALID,71,VALID,0.987891,
2011-09-30, 01:52:04,VALID,917.223,VALID,0,VALID,96.6649,VALID,0,VALID,18.4731,VALID,71,VALID,0.809766,
2011-09-30, 01:53:04,VALID,917.193,VALID,0,VALID,96.6802,VALID,0,VALID,18.4355,VALID,71,VALID,0.780469,
2011-09-30, 01:54:04,VALID,917.21,VALID,0,VALID,96.7488,VALID,0,VALID,18.3756,VALID,71,VALID,0.706641,
2011-09-30, 01:55:04,VALID,917.209,VALID,0,VALID,96.7411,VALID,0,VALID,18.3589,VALID,71,VALID,0.585547,
2011-09-30, 01:56:04,VALID,917.173,VALID,0,VALID,96.8174,VALID,0,VALID,18.299,VALID,71,VALID,0.287109,
2011-09-30, 01:57:04,VALID,917.147,VALID,0,VALID,96.9394,VALID,0,VALID,18.3185,VALID,71,VALID,0.220703,
2011-09-30, 01:58:04,VALID,917.142,VALID,0,VALID,97.069,VALID,0,VALID,18.377,VALID,71,VALID,0,
2011-09-30, 01:59:04,VALID,917.048,VALID,0,VALID,97.069,VALID,0,VALID,18.3965,VALID,71,VALID,0,
2011-09-30, 02:00:04,VALID,917.02,VALID,0,VALID,96.9851,VALID,0,VALID,18.338,VALID,71,VALID,0.562891,
2011-09-30, 02:01:04,VALID,917.002,VALID,0,VALID,97.0308,VALID,0,VALID,18.338,VALID,71,VALID,0.842969,
2011-09-30, 02:02:04,VALID,917.01,VALID,0,VALID,97.0766,VALID,0,VALID,18.3366,VALID,71,VALID,0.949219,
2011-09-30, 02:03:04,VALID,916.995,VALID,0,VALID,96.9851,VALID,0,VALID,18.338,VALID,71,VALID,0.573828,
2011-09-30, 02:04:04,VALID,916.983,VALID,0,VALID,97.008,VALID,0,VALID,18.299,VALID,71,VALID,0.698828,
2011-09-30, 02:05:04,VALID,916.985,VALID,0,VALID,96.9622,VALID,0,VALID,18.2587,VALID,71,VALID,0.541406,
2011-09-30, 02:06:04,VALID,916.991,VALID,0,VALID,97.0766,VALID,0,VALID,18.2796,VALID,71,VALID,0.426172,
2011-09-30, 02:07:04,VALID,916.993,VALID,0,VALID,97.0766,VALID,0,VALID,18.2796,VALID,71,VALID,0.0328125,
2011-09-30, 02:08:04,VALID,916.929,VALID,0,VALID,97.1147,VALID,0,VALID,18.2796,VALID,71,VALID,0,
2011-09-30, 02:09:04,VALID,916.924,VALID,0,VALID,97.1299,VALID,0,VALID,18.3004,VALID,71,VALID,0,
2011-09-30, 02:10:04,VALID,916.865,VALID,0,VALID,97.1376,VALID,0,VALID,18.2796,VALID,71,VALID,0,
2011-09-30, 02:11:04,VALID,916.891,VALID,0,VALID,97.1223,VALID,0,VALID,18.2796,VALID,71,VALID,0,
2011-09-30, 02:12:04,VALID,916.883,VALID,0,VALID,97.1604,VALID,0,VALID,18.299,VALID,71,VALID,0,
2011-09-30, 02:13:04,VALID,916.838,VALID,0,VALID,97.0842,VALID,0,VALID,18.2796,VALID,71,VALID,0,
2011-09-30, 02:14:04,VALID,916.849,VALID,0,VALID,97.069,VALID,0,VALID,18.2601,VALID,71,VALID,0,
2011-09-30, 02:15:04,VALID,916.893,VALID,0,VALID,97.0994,VALID,0,VALID,18.2796,VALID,71,VALID,0.184766,
2011-09-30, 02:16:04,VALID,916.907,VALID,0,VALID,97.0461,VALID,0,VALID,18.2796,VALID,71,VALID,0.132813,
2011-09-30, 02:17:04,VALID,916.935,VALID,0,VALID,96.9317,VALID,0,VALID,18.2809,VALID,71,VALID,0.0113281,
2011-09-30, 02:18:04,VALID,916.908,VALID,0,VALID,97.0232,VALID,0,VALID,18.2796,VALID,71,VALID,0.248437,
2011-09-30, 02:19:04,VALID,916.889,VALID,0,VALID,97.069,VALID,0,VALID,18.3185,VALID,71,VALID,0.0375,
2011-09-30, 02:20:04,VALID,916.85,VALID,0,VALID,97.1757,VALID,0,VALID,18.377,VALID,71,VALID,0,
2011-09-30, 02:21:04,VALID,916.819,VALID,0,VALID,97.1986,VALID,0,VALID,18.455,VALID,71,VALID,0.235156,
2011-09-30, 02:22:04,VALID,916.798,VALID,0,VALID,97.229,VALID,0,VALID,18.494,VALID,71,VALID,0.204297,
2011-09-30, 02:23:04,VALID,916.803,VALID,0,VALID,97.1757,VALID,0,VALID,18.4745,VALID,71,VALID,0,
2011-09-30, 02:24:04,VALID,916.792,VALID,0,VALID,97.0842,VALID,0,VALID,18.416,VALID,71,VALID,0,
2011-09-30, 02:25:04,VALID,916.781,VALID,0,VALID,97.0766,VALID,0,VALID,18.3979,VALID,71,VALID,0,
2011-09-30, 02:26:04,VALID,916.783,VALID,0,VALID,97.0156,VALID,0,VALID,18.3784,VALID,71,VALID,0,
2011-09-30, 02:27:04,VALID,916.808,VALID,0,VALID,96.825,VALID,0,VALID,18.2016,VALID,71,VALID,0.250391,
2011-09-30, 02:28:04,VALID,916.771,VALID,0,VALID,96.6497,VALID,0,VALID,18.125,VALID,71,VALID,0.519531,
2011-09-30, 02:29:04,VALID,916.808,VALID,0,VALID,96.6039,VALID,0,VALID,18.008,VALID,71,VALID,0.325781,
2011-09-30, 02:30:04,VALID,916.827,VALID,0,VALID,96.6039,VALID,0,VALID,17.8897,VALID,71,VALID,0.307813,
2011-09-30, 02:31:04,VALID,916.798,VALID,0,VALID,96.7411,VALID,0,VALID,17.8911,VALID,71,VALID,0,
2011-09-30, 02:32:04,VALID,916.811,VALID,0,VALID,96.8784,VALID,0,VALID,17.9106,VALID,71,VALID,0,
2011-09-30, 02:33:04,VALID,916.804,VALID,0,VALID,96.9394,VALID,0,VALID,17.9301,VALID,71,VALID,0,
2011-09-30, 02:34:04,VALID,916.816,VALID,0,VALID,97.0842,VALID,0,VALID,17.9691,VALID,71,VALID,0,
2011-09-30, 02:35:04,VALID,916.775,VALID,0,VALID,97.0918,VALID,0,VALID,18.047,VALID,71,VALID,0.01875,
2011-09-30, 02:36:04,VALID,916.788,VALID,0,VALID,96.9317,VALID,0,VALID,17.9287,VALID,71,VALID,0.228125,
2011-09-30, 02:37:04,VALID,916.828,VALID,0,VALID,97.1452,VALID,0,VALID,18.008,VALID,71,VALID,0.38125,
2011-09-30, 02:38:04,VALID,916.814,VALID,0,VALID,96.9546,VALID,0,VALID,17.9886,VALID,71,VALID,0.821875,
2011-09-30, 02:39:04,VALID,916.832,VALID,0,VALID,97.008,VALID,0,VALID,17.9301,VALID,71,VALID,0.841797,
2011-09-30, 02:40:04,VALID,916.833,VALID,0,VALID,97.0918,VALID,0,VALID,17.9886,VALID,71,VALID,0.719141,
2011-09-30, 02:41:04,VALID,916.829,VALID,0,VALID,97.1299,VALID,0,VALID,18.008,VALID,71,VALID,0.764063,
2011-09-30, 02:42:04,VALID,916.857,VALID,0,VALID,97.1681,VALID,0,VALID,18.008,VALID,71,VALID,0.762891,
2011-09-30, 02:43:04,VALID,916.86,VALID,0,VALID,97.1147,VALID,0,VALID,18.0275,VALID,71,VALID,0.458984,
2011-09-30, 02:44:04,VALID,916.838,VALID,0,VALID,97.0385,VALID,0,VALID,18.008,VALID,71,VALID,0,
2011-09-30, 02:45:04,VALID,916.799,VALID,0,VALID,96.9927,VALID,0,VALID,17.9496,VALID,71,VALID,0,
2011-09-30, 02:46:04,VALID,916.751,VALID,0,VALID,97.0461,VALID,0,VALID,17.9287,VALID,71,VALID,0.517187,
2011-09-30, 02:47:04,VALID,916.729,VALID,0,VALID,97.0994,VALID,0,VALID,17.9691,VALID,71,VALID,0.280469,
2011-09-30, 02:48:04,VALID,916.75,VALID,0,VALID,97.1452,VALID,0,VALID,17.9691,VALID,71,VALID,0.25625,
2011-09-30, 02:49:04,VALID,916.774,VALID,0,VALID,97.1757,VALID,0,VALID,17.9886,VALID,71,VALID,0.163672,
2011-09-30, 02:50:04,VALID,916.781,VALID,0,VALID,97.1223,VALID,0,VALID,17.9301,VALID,71,VALID,0.446875,
2011-09-30, 02:51:04,VALID,916.794,VALID,0,VALID,97.0994,VALID,0,VALID,17.8911,VALID,71,VALID,0.530469,
2011-09-30, 02:52:04,VALID,916.778,VALID,0,VALID,97.0766,VALID,0,VALID,17.8521,VALID,71,VALID,0.392969,
2011-09-30, 02:53:04,VALID,916.779,VALID,0,VALID,97.0766,VALID,0,VALID,17.8131,VALID,71,VALID,0.175391,
2011-09-30, 02:54:04,VALID,916.802,VALID,0,VALID,97.1071,VALID,0,VALID,17.8131,VALID,71,VALID,0.0261719,
2011-09-30, 02:55:04,VALID,916.783,VALID,0,VALID,97.1757,VALID,0,VALID,17.8131,VALID,71,VALID,0.467187,
2011-09-30, 02:56:04,VALID,916.75,VALID,0,VALID,97.1986,VALID,0,VALID,17.8131,VALID,71,VALID,0.759766,
2011-09-30, 02:57:04,VALID,916.764,VALID,0,VALID,97.2748,VALID,0,VALID,17.8716,VALID,71,VALID,0.786719,
2011-09-30, 02:58:04,VALID,916.816,VALID,0,VALID,97.3053,VALID,0,VALID,17.9106,VALID,71,VALID,0.673828,
2011-09-30, 02:59:04,VALID,916.787,VALID,0,VALID,97.3129,VALID,0,VALID,17.8911,VALID,71,VALID,0.263281,
2011-09-30, 03:00:04,VALID,916.843,VALID,0,VALID,97.0537,VALID,0,VALID,17.8326,VALID,71,VALID,0,
2011-09-30, 03:01:04,VALID,916.825,VALID,0,VALID,96.9165,VALID,0,VALID,17.6767,VALID,71,VALID,0,
2011-09-30, 03:02:04,VALID,916.838,VALID,0,VALID,96.9241,VALID,0,VALID,17.5792,VALID,71,VALID,0.315234,
2011-09-30, 03:03:04,VALID,916.84,VALID,0,VALID,96.8707,VALID,0,VALID,17.5013,VALID,71,VALID,0.296094,
2011-09-30, 03:04:04,VALID,916.821,VALID,0,VALID,96.886,VALID,0,VALID,17.4233,VALID,71,VALID,0.184375,
2011-09-30, 03:05:04,VALID,916.806,VALID,0,VALID,96.9622,VALID,0,VALID,17.4038,VALID,71,VALID,0.416406,
2011-09-30, 03:06:04,VALID,916.77,VALID,0,VALID,97.0537,VALID,0,VALID,17.3844,VALID,71,VALID,0.471484,
2011-09-30, 03:07:04,VALID,916.765,VALID,0,VALID,97.1376,VALID,0,VALID,17.4052,VALID,71,VALID,0.290625,
2011-09-30, 03:08:04,VALID,916.714,VALID,0,VALID,97.2595,VALID,0,VALID,17.4441,VALID,71,VALID,0.394531,
2011-09-30, 03:09:04,VALID,916.707,VALID,0,VALID,97.229,VALID,0,VALID,17.4025,VALID,71,VALID,0.401563,
2011-09-30, 03:10:04,VALID,916.704,VALID,0,VALID,97.2748,VALID,0,VALID,17.4428,VALID,71,VALID,0.208594,
2011-09-30, 03:11:04,VALID,916.722,VALID,0,VALID,97.2595,VALID,0,VALID,17.4428,VALID,71,VALID,0,
2011-09-30, 03:12:04,VALID,916.698,VALID,0,VALID,97.2367,VALID,0,VALID,17.4428,VALID,71,VALID,0.492969,
2011-09-30, 03:13:04,VALID,916.722,VALID,0,VALID,97.2138,VALID,0,VALID,17.4428,VALID,71,VALID,0.505469,
2011-09-30, 03:14:04,VALID,916.766,VALID,0,VALID,97.1986,VALID,0,VALID,17.4428,VALID,71,VALID,0.265234,
2011-09-30, 03:15:04,VALID,916.774,VALID,0,VALID,97.1986,VALID,0,VALID,17.4428,VALID,71,VALID,0,
2011-09-30, 03:16:04,VALID,916.747,VALID,0,VALID,97.0537,VALID,0,VALID,17.422,VALID,71,VALID,0,
2011-09-30, 03:17:04,VALID,916.79,VALID,0,VALID,96.7488,VALID,0,VALID,17.2856,VALID,71,VALID,0.626562,
2011-09-30, 03:18:04,VALID,916.802,VALID,0,VALID,97.0003,VALID,0,VALID,17.3051,VALID,71,VALID,0.605078,
2011-09-30, 03:19:04,VALID,916.818,VALID,0,VALID,96.9317,VALID,0,VALID,17.3051,VALID,71,VALID,0.191406,
2011-09-30, 03:20:04,VALID,916.824,VALID,0,VALID,96.9317,VALID,0.107441,VALID,17.2869,VALID,71,VALID,0.171875,
2011-09-30, 03:21:04,VALID,916.805,VALID,0,VALID,97.1452,VALID,0,VALID,17.3246,VALID,71,VALID,0.215234,
2011-09-30, 03:22:04,VALID,916.773,VALID,0,VALID,97.2672,VALID,0.107441,VALID,17.4415,VALID,71,VALID,0,
2011-09-30, 03:23:04,VALID,916.727,VALID,0,VALID,97.351,VALID,0,VALID,17.5389,VALID,71,VALID,0,
2011-09-30, 03:24:04,VALID,916.695,VALID,0,VALID,97.2519,VALID,0,VALID,17.5584,VALID,71,VALID,0.0457031,
2011-09-30, 03:25:04,VALID,916.683,VALID,0,VALID,97.2062,VALID,0,VALID,17.5584,VALID,71,VALID,0.398047,
2011-09-30, 03:26:04,VALID,916.681,VALID,0,VALID,97.0613,VALID,0,VALID,17.5,VALID,71,VALID,0.444531,
2011-09-30, 03:27:04,VALID,916.73,VALID,0,VALID,97.0232,VALID,0,VALID,17.4805,VALID,71,VALID,0.412109,
2011-09-30, 03:28:04,VALID,916.737,VALID,0,VALID,96.9775,VALID,0,VALID,17.4415,VALID,71,VALID,0.366406,
2011-09-30, 03:29:04,VALID,916.754,VALID,0,VALID,96.9775,VALID,0,VALID,17.4415,VALID,71,VALID,0,
2011-09-30, 03:30:04,VALID,916.759,VALID,0,VALID,96.9775,VALID,0,VALID,17.4415,VALID,71,VALID,0.176172,
2011-09-30, 03:31:04,VALID,916.794,VALID,0,VALID,96.9698,VALID,0,VALID,17.461,VALID,71,VALID,0,
2011-09-30, 03:32:04,VALID,916.813,VALID,0,VALID,96.9698,VALID,0.107441,VALID,17.461,VALID,71,VALID,0,
2011-09-30, 03:33:04,VALID,916.802,VALID,0,VALID,97.0461,VALID,0.107441,VALID,17.5,VALID,71,VALID,0.121875,
2011-09-30, 03:34:04,VALID,916.797,VALID,0,VALID,97.0385,VALID,0.107441,VALID,17.5389,VALID,71,VALID,0.253906,
2011-09-30, 03:35:04,VALID,916.744,VALID,0,VALID,97.069,VALID,0.107441,VALID,17.5389,VALID,71,VALID,0.296094,
2011-09-30, 03:36:04,VALID,916.768,VALID,0,VALID,97.0842,VALID,0,VALID,17.5584,VALID,71,VALID,0.242578,
2011-09-30, 03:37:04,VALID,916.788,VALID,0,VALID,97.2138,VALID,0.107441,VALID,17.6754,VALID,71,VALID,0.164844,
2011-09-30, 03:38:04,VALID,916.77,VALID,0,VALID,96.9927,VALID,0,VALID,17.6169,VALID,71,VALID,0.297656,
2011-09-30, 03:39:04,VALID,916.829,VALID,0,VALID,96.5353,VALID,0,VALID,17.4415,VALID,71,VALID,0.455469,
2011-09-30, 03:40:04,VALID,916.849,VALID,0,VALID,96.4819,VALID,0.107441,VALID,17.3051,VALID,71,VALID,0.539453,
2011-09-30, 03:41:04,VALID,916.904,VALID,0,VALID,96.5887,VALID,0.107441,VALID,17.2856,VALID,71,VALID,0.335938,
2011-09-30, 03:42:04,VALID,916.927,VALID,0,VALID,96.764,VALID,0.107441,VALID,17.3051,VALID,71,VALID,0,
2011-09-30, 03:43:04,VALID,916.92,VALID,0,VALID,96.9698,VALID,0.107441,VALID,17.3635,VALID,71,VALID,0,
2011-09-30, 03:44:04,VALID,916.937,VALID,0,VALID,97.0156,VALID,0.107441,VALID,17.4038,VALID,71,VALID,0,
2011-09-30, 03:45:04,VALID,916.921,VALID,0,VALID,96.9851,VALID,0,VALID,17.4025,VALID,71,VALID,0,
2011-09-30, 03:46:04,VALID,916.929,VALID,0,VALID,96.9546,VALID,0.107441,VALID,17.383,VALID,71,VALID,0,
2011-09-30, 03:47:04,VALID,916.927,VALID,0,VALID,96.8479,VALID,0,VALID,17.3649,VALID,71,VALID,0.241016,
2011-09-30, 03:48:04,VALID,916.926,VALID,0,VALID,97.0994,VALID,0.107441,VALID,17.4025,VALID,71,VALID,0.343359,
2011-09-30, 03:49:04,VALID,916.925,VALID,0,VALID,97.2748,VALID,0,VALID,17.5389,VALID,71,VALID,0.232812,
2011-09-30, 03:50:04,VALID,916.945,VALID,0,VALID,97.3205,VALID,0.107441,VALID,17.6572,VALID,71,VALID,0.330859,